Hourly Weather Kızılcahamam

Today, 21 April, Wednesday

Time Temperature Precipitation Wind Pressure Humidity
00:00 +8°C° 0 mm 1 mps 675 mmHg 85%
01:00 +7°C° 0 mm 1 mps 675 mmHg 86%
02:00 +7°C° 0 mm 1 mps 676 mmHg 88%
03:00 +6°C° 0 mm 1 mps 676 mmHg 87%
04:00 +6°C° 0 mm 1 mps 676 mmHg 87%
05:00 +6°C° 0 mm 1 mps 676 mmHg 87%
06:00 +7°C° 0 mm 1 mps 676 mmHg 76%
07:00 +9°C° 0 mm 1 mps 677 mmHg 65%
08:00 +10°C° 0 mm 1 mps 677 mmHg 55%
09:00 +12°C° 0 mm 1 mps 677 mmHg 48%
10:00 +13°C° 0 mm 2 mps 677 mmHg 42%
11:00 +14°C° 0 mm 2 mps 677 mmHg 36%
12:00 +14°C° 0 mm 3 mps 677 mmHg 33%
13:00 +14°C° 0 mm 3 mps 677 mmHg 31%
14:00 +15°C° 0 mm 4 mps 677 mmHg 29%
15:00 +14°C° 0 mm 4 mps 677 mmHg 32%
16:00 +14°C° 0 mm 4 mps 677 mmHg 35%
17:00 +13°C° 0 mm 4 mps 677 mmHg 38%
18:00 +12°C° 0 mm 3 mps 677 mmHg 47%
19:00 +10°C° 0 mm 3 mps 677 mmHg 56%
20:00 +9°C° 0 mm 2 mps 677 mmHg 65%
21:00 +8°C° 0 mm 2 mps 678 mmHg 69%
22:00 +8°C° 0 mm 2 mps 678 mmHg 74%
23:00 +8°C° 0 mm 1 mps 678 mmHg 78%

Tomorrow, 22 April, Thursday

Time Temperature Precipitation Wind Pressure Humidity
00:00 +8°C° 0 mm 1 mps 678 mmHg 78%
01:00 +8°C° 0 mm 1 mps 678 mmHg 78%
02:00 +8°C° 0 mm 1 mps 678 mmHg 79%
03:00 +7°C° 0 mm 1 mps 678 mmHg 80%
04:00 +7°C° 0 mm 1 mps 678 mmHg 82%
05:00 +6°C° 0 mm 1 mps 678 mmHg 83%
06:00 +8°C° 0 mm 1 mps 679 mmHg 77%
07:00 +9°C° 0 mm 1 mps 679 mmHg 70%
08:00 +11°C° 0 mm 1 mps 680 mmHg 63%
09:00 +12°C° 0 mm 2 mps 680 mmHg 55%
10:00 +12°C° 0 mm 3 mps 680 mmHg 48%
11:00 +14°C° 0 mm 3 mps 680 mmHg 40%
12:00 +14°C° 0 mm 3 mps 680 mmHg 38%
13:00 +15°C° 0 mm 4 mps 680 mmHg 35%
14:00 +15°C° 0 mm 4 mps 680 mmHg 32%
15:00 +15°C° 0 mm 4 mps 680 mmHg 35%
16:00 +14°C° 0 mm 4 mps 680 mmHg 37%
17:00 +14°C° 0 mm 4 mps 680 mmHg 40%
18:00 +12°C° 0 mm 3 mps 680 mmHg 48%
19:00 +12°C° 0 mm 2 mps 680 mmHg 56%
20:00 +10°C° 0 mm 1 mps 680 mmHg 64%
21:00 +10°C° 0 mm 1 mps 680 mmHg 67%
22:00 +9°C° 0 mm 1 mps 680 mmHg 69%
23:00 +8°C° 0 mm 1 mps 680 mmHg 71%

Day after tomorrow, 23 April, Friday

Time Temperature Precipitation Wind Pressure Humidity
00:00 +8°C° 0 mm 1 mps 680 mmHg 70%
01:00 +8°C° 0 mm 1 mps 680 mmHg 69%
02:00 +8°C° 0 mm 1 mps 679 mmHg 69%
03:00 +8°C° 0 mm 1 mps 679 mmHg 69%
04:00 +7°C° 0 mm 1 mps 679 mmHg 69%
05:00 +7°C° 0 mm 1 mps 679 mmHg 69%
06:00 +9°C° 0 mm 1 mps 679 mmHg 62%
07:00 +10°C° 0 mm 2 mps 680 mmHg 55%
08:00 +13°C° 0 mm 2 mps 680 mmHg 48%
09:00 +13°C° 0 mm 3 mps 680 mmHg 43%
10:00 +15°C° 0 mm 4 mps 680 mmHg 38%
11:00 +17°C° 0 mm 5 mps 680 mmHg 33%
12:00 +17°C° 0 mm 5 mps 679 mmHg 32%
13:00 +19°C° 0 mm 5 mps 679 mmHg 30%
14:00 +19°C° 0 mm 6 mps 679 mmHg 29%
15:00 +19°C° 0 mm 5 mps 679 mmHg 31%
16:00 +19°C° 0 mm 5 mps 678 mmHg 33%
17:00 +19°C° 0 mm 4 mps 678 mmHg 35%
18:00 +17°C° 0 mm 4 mps 678 mmHg 45%
19:00 +14°C° 0 mm 4 mps 678 mmHg 54%
20:00 +12°C° 0 mm 3 mps 679 mmHg 63%
21:00 +12°C° 0 mm 3 mps 679 mmHg 67%
22:00 +12°C° 0 mm 2 mps 679 mmHg 70%
23:00 +10°C° 0 mm 2 mps 679 mmHg 74%

24 April, Saturday

Time Temperature Precipitation Wind Pressure Humidity
00:00 +10°C° 0 mm 2 mps 679 mmHg 76%
01:00 +9°C° 0 mm 2 mps 678 mmHg 77%
02:00 +10°C° 0 mm 1 mps 678 mmHg 79%
03:00 +10°C° 0 mm 1 mps 678 mmHg 79%
04:00 +10°C° 0 mm 1 mps 679 mmHg 79%
05:00 +10°C° 0 mm 1 mps 679 mmHg 79%
06:00 +11°C° 0 mm 1 mps 679 mmHg 74%
07:00 +11°C° 0 mm 0 mps 679 mmHg 70%
08:00 +12°C° 0 mm 0 mps 679 mmHg 65%
09:00 +14°C° 0 mm 1 mps 679 mmHg 61%
10:00 +15°C° 0 mm 1 mps 679 mmHg 58%
11:00 +16°C° 0 mm 2 mps 679 mmHg 54%
12:00 +16°C° 0 mm 2 mps 679 mmHg 55%
13:00 +17°C° 0 mm 2 mps 678 mmHg 55%
14:00 +17°C° 0 mm 2 mps 678 mmHg 55%
15:00 +16°C° 0.3 mm 2 mps 678 mmHg 62%
16:00 +15°C° 0.3 mm 2 mps 678 mmHg 68%
17:00 +14°C° 0.3 mm 2 mps 678 mmHg 75%
18:00 +14°C° 0.5 mm 2 mps 678 mmHg 79%
19:00 +13°C° 0.5 mm 1 mps 678 mmHg 83%
20:00 +13°C° 0.5 mm 1 mps 677 mmHg 87%
21:00 +12°C° 1.3 mm 1 mps 677 mmHg 89%
22:00 +12°C° 1.3 mm 1 mps 677 mmHg 92%
23:00 +12°C° 1.3 mm 1 mps 677 mmHg 95%

25 April, Sunday

Time Temperature Precipitation Wind Pressure Humidity
00:00 +12°C° 0.5 mm 1 mps 676 mmHg 95%
01:00 +12°C° 0.5 mm 1 mps 676 mmHg 95%
02:00 +12°C° 0.5 mm 1 mps 676 mmHg 96%
03:00 +12°C° 0.5 mm 1 mps 676 mmHg 95%
04:00 +12°C° 0.5 mm 1 mps 675 mmHg 95%
05:00 +12°C° 0.5 mm 2 mps 675 mmHg 94%
06:00 +12°C° 0.2 mm 2 mps 675 mmHg 93%
07:00 +12°C° 0.2 mm 2 mps 675 mmHg 93%
08:00 +12°C° 0.2 mm 2 mps 675 mmHg 92%
09:00 +12°C° 0.3 mm 2 mps 675 mmHg 89%
10:00 +12°C° 0.3 mm 2 mps 675 mmHg 87%
11:00 +12°C° 0.3 mm 3 mps 676 mmHg 84%
12:00 +12°C° 0.3 mm 3 mps 675 mmHg 84%
13:00 +11°C° 0.3 mm 3 mps 675 mmHg 83%
14:00 +11°C° 0.3 mm 3 mps 675 mmHg 83%
15:00 +12°C° 0.1 mm 2 mps 675 mmHg 83%
16:00 +12°C° 0.1 mm 2 mps 675 mmHg 82%
17:00 +12°C° 0.1 mm 2 mps 675 mmHg 82%
18:00 +10°C° 0.1 mm 2 mps 675 mmHg 84%
19:00 +9°C° 0.1 mm 2 mps 676 mmHg 86%
20:00 +9°C° 0.1 mm 2 mps 676 mmHg 88%
21:00 +8°C° 0 mm 2 mps 676 mmHg 89%
22:00 +8°C° 0 mm 2 mps 676 mmHg 90%
23:00 +8°C° 0 mm 2 mps 676 mmHg 91%

26 April, Monday

Time Temperature Precipitation Wind Pressure Humidity
00:00 +7°C° 0 mm 2 mps 676 mmHg 91%
01:00 +7°C° 0 mm 2 mps 676 mmHg 91%
02:00 +7°C° 0 mm 2 mps 676 mmHg 92%
03:00 +7°C° 0 mm 2 mps 676 mmHg 91%
04:00 +6°C° 0 mm 2 mps 676 mmHg 91%
05:00 +6°C° 0 mm 2 mps 676 mmHg 91%
06:00 +6°C° 0 mm 2 mps 676 mmHg 87%
07:00 +7°C° 0 mm 2 mps 676 mmHg 83%
08:00 +7°C° 0 mm 2 mps 677 mmHg 80%
09:00 +8°C° 0 mm 2 mps 677 mmHg 73%
10:00 +9°C° 0 mm 2 mps 677 mmHg 66%
11:00 +11°C° 0 mm 3 mps 677 mmHg 60%
12:00 +11°C° 0 mm 3 mps 677 mmHg 54%
13:00 +12°C° 0 mm 4 mps 677 mmHg 49%
14:00 +13°C° 0 mm 5 mps 677 mmHg 44%
15:00 +12°C° 0 mm 5 mps 677 mmHg 46%
16:00 +12°C° 0 mm 5 mps 677 mmHg 47%
17:00 +10°C° 0 mm 5 mps 677 mmHg 49%
18:00 +8°C° 0 mm 4 mps 678 mmHg 58%
19:00 +8°C° 0 mm 3 mps 678 mmHg 66%
20:00 +6°C° 0 mm 2 mps 678 mmHg 75%
21:00 +5°C° 0 mm 2 mps 679 mmHg 78%
22:00 +5°C° 0 mm 2 mps 679 mmHg 80%
23:00 +5°C° 0 mm 1 mps 679 mmHg 83%
Show more

We Need Your Consent

Meteoprog and our Service Providers may store and access personal data such as cookies, device identifiers or other similar technologies on your device and process such data to personalise content and ads, as well as provide social media features and to analyse the traffic.

  • Store and/or access information on your device

    Cookies, device identifiers or other information can be stored or accessed on your device for the purposes indicated above.

  • Personalised ads and content, ad and content measurement, audience insights, and products development

    Ads and content can be personalised based on a profile. More data can be added to better personalise ads and content. Ad and content performance can be measured. Insights about the audience who saw the ads and content can be derived. Such data can be used to develop or improve user’s experience, systems and software.

By clicking ‘I Agree’ you will allow the use of indicated cookies, device identifiers, web beacons or other similar technologies. Your settings can be changed in the browser on your device.

For certain purposes, legitimate interests may be relied on, rather than consent. You can read more about this in our Privacy and Cookie Policy.